EW3235 Weather Reports


Display with metric or nautical units.
time (UTC)temp
F
wind
direction
speed
MPH
gust
MPH
rain 1hr
in
rain 24hr
in
rain mn
in
humidity
%
barometer
mb
20180123215310 57 268 1.0 3.0 0.00 0.01 0.01 69 1022.7
20180123213827 57 249 0.0 3.0 0.00 0.01 0.01 72 1022.9
20180123212457 57 172 0.0 2.0 0.00 0.01 0.01 73 1023.1
20180123211023 56 347 0.0 1.0 0.00 0.01 0.01 72 1023.3
20180123205556 55 13 0.0 2.0 0.00 0.01 0.01 77 1023.4
20180123203656 54 281 0.0 1.0 0.00 0.01 0.01 78 1024.1
20180123202944 54 236 0.0 2.0 0.00 0.01 0.01 80 1024.3
20180123200544 51 326 0.0 2.0 0.00 0.01 0.01 86 1024.9
20180123200031 50 4 0.0 2.0 0.00 0.01 0.01 87 1024.9
20180123193519 47 16 0.0 3.0 0.00 0.01 0.01 92 1025.4
20180123191949 46 217 0.0 2.0 0.00 0.01 0.01 92 1025.8
20180123190827 44 342 0.0 1.0 0.00 0.01 0.01 92 1026.1
20180123185041 43 82 0.0 1.0 0.00 0.01 0.01 92 1026.2
20180123184516 42 86 0.0 0.0 0.00 0.01 0.01 92 1026.3
20180123182227 41 224 0.0 0.0 0.00 0.01 0.01 92 1026.5
20180123181225 40 239 0.0 0.0 0.00 0.01 0.01 92 1026.6
20180123175010 40 258 0.0 0.0 0.00 0.01 0.01 92 1026.4
20180123173924 39 309 0.0 1.0 0.00 0.01 0.01 92 1026.4
20180123172147 39 38 0.0 1.0 0.00 0.01 0.01 92 1026.6
20180123170617 38 12 0.0 3.0 0.00 0.01 0.01 92 1026.8
20180123164930 37 85 0.0 1.0 0.00 0.01 0.01 92 1026.6
20180123163444 37 6 0.0 1.0 0.00 0.01 0.01 92 1026.3
20180123162319 36 297 0.0 1.0 0.00 0.01 0.01 92 1026.2
20180123160540 36 311 0.0 0.0 0.00 0.01 0.01 92 1026.0
20180123155313 35 243 0.0 0.0 0.00 0.01 0.01 92 1025.9
20180123152156 35 99 0.0 0.0 0.00 0.01 0.01 92 1026.1
20180123150436 35 99 0.0 0.0 0.00 0.01 0.01 92 1026.1
20180123144926 34 99 0.0 0.0 0.00 0.01 0.01 92 1026.1
20180123143527 35 99 0.0 0.0 0.00 0.01 0.01 92 1026.0
20180123142813 35 99 0.0 0.0 0.00 0.01 0.01 92 1026.1
20180123140617 35 99 0.0 0.0 0.00 0.01 0.01 92 1026.1
20180123135251 35 99 0.0 0.0 0.00 0.01 0.01 92 1026.1
20180123131832 34 99 0.0 0.0 0.00 0.01 0.01 92 1026.2
20180123131221 34 99 0.0 0.0 0.00 0.01 0.01 92 1026.3
20180123124828 34 99 0.0 0.0 0.00 0.02 0.01 92 1026.4
20180123123452 34 99 0.0 0.0 0.00 0.02 0.01 92 1026.1
20180123122118 34 99 0.0 0.0 0.00 0.02 0.01 92 1026.2
20180123120543 35 99 0.0 0.0 0.00 0.02 0.01 92 1026.3
20180123115526 35 99 0.0 0.0 0.00 0.03 0.01 92 1026.3
20180123113726 35 99 0.0 0.0 0.00 0.03 0.01 92 1026.4
20180123111748 35 99 0.0 0.0 0.00 0.03 0.01 92 1026.4
20180123110314 35 99 0.0 0.0 0.00 0.03 0.01 92 1026.5
20180123104742 35 143 0.0 0.0 0.01 0.05 0.01 92 1026.7
20180123101721 35 89 0.0 1.0 0.01 0.05 0.01 92 1026.8
20180123100311 35 77 0.0 1.0 0.01 0.05 0.01 92 1026.8
20180123095711 35 76 0.0 1.0 0.00 0.13 0.00 92 1026.7
20180123093401 35 77 0.0 0.0 0.00 0.13 0.00 92 1026.7
20180123092537 35 77 0.0 0.0 0.00 0.13 0.00 92 1026.6
20180123090353 36 77 0.0 0.0 0.00 0.13 0.00 92 1026.5
20180123084919 36 97 0.0 0.0 0.00 0.26 0.00 92 1026.6
20180123083645 36 97 0.0 0.0 0.00 0.26 0.00 92 1026.7
20180123082201 36 97 0.0 0.0 0.00 0.26 0.00 92 1026.9
20180123081042 37 97 0.0 0.0 0.00 0.26 0.00 92 1027.1
20180123074844 37 97 0.0 1.0 0.00 0.47 0.26 92 1027.3
20180123073157 38 146 0.0 1.0 0.00 0.47 0.26 92 1027.2
20180123072445 38 216 0.0 1.0 0.00 0.47 0.26 92 1027.2
20180123070600 38 137 0.0 0.0 0.00 0.47 0.26 92 1027.1
20180123064725 39 137 0.0 1.0 0.00 0.52 0.26 92 1027.2
20180123063134 39 137 0.0 0.0 0.00 0.52 0.26 92 1027.2
20180123061706 40 191 0.0 0.0 0.00 0.52 0.26 92 1027.2
20180123060126 41 77 0.0 2.0 0.00 0.52 0.26 92 1027.3
20180123054854 41 37 0.0 0.0 0.00 0.56 0.26 92 1027.3
20180123053251 41 37 0.0 0.0 0.00 0.56 0.26 92 1027.2
20180123051707 42 37 0.0 0.0 0.00 0.56 0.26 92 1026.8
20180123050132 42 16 0.0 1.0 0.00 0.56 0.26 92 1026.6
20180123044548 43 101 0.0 0.0 0.00 0.65 0.26 92 1026.7
20180123043109 44 102 0.0 0.0 0.00 0.65 0.26 92 1026.5
20180123041637 45 90 0.0 0.0 0.00 0.65 0.26 92 1026.7
20180123040311 45 101 0.0 0.0 0.00 0.65 0.26 91 1026.8
20180123034618 46 96 0.0 1.0 0.00 0.68 0.26 92 1026.6
20180123033905 46 108 0.0 0.0 0.00 0.68 0.26 92 1026.6
20180123031604 46 108 0.0 1.0 0.00 0.68 0.26 91 1026.3
20180123030124 46 293 0.0 0.0 0.00 0.68 0.26 91 1026.1
20180123024751 46 293 0.0 1.0 0.00 0.71 0.26 91 1026.0
20180123023302 47 325 0.0 0.0 0.00 0.71 0.26 90 1025.9
20180123021733 48 271 0.0 0.0 0.00 0.71 0.26 89 1025.6
20180123020151 50 153 0.0 0.0 0.00 0.71 0.26 87 1025.5
20180123014602 51 105 0.0 0.0 0.00 0.75 0.26 85 1025.3
20180123013025 53 106 0.0 0.0 0.00 0.75 0.26 82 1025.2
20180123011553 54 106 0.0 3.0 0.00 0.75 0.26 80 1025.2
20180123010943 54 88 1.0 2.0 0.00 0.75 0.26 79 1025.3
20180123004955 55 101 0.0 3.0 0.00 0.77 0.26 78 1025.4
20180123003002 56 91 1.0 6.0 0.00 0.77 0.26 76 1025.4
20180123001730 57 20 0.0 3.0 0.00 0.77 0.26 74 1025.3
20180123000402 57 94 0.0 2.0 0.00 0.77 0.26 72 1025.2
20180122234506 57 103 0.0 3.0 0.00 0.77 0.26 72 1025.1
20180122232935 57 102 0.0 4.0 0.00 0.77 0.26 72 1025.2
20180122231501 57 105 0.0 2.0 0.00 0.77 0.26 73 1025.2
20180122225930 57 4 0.0 4.0 0.00 0.77 0.26 73 1025.2
20180122224442 57 75 1.0 4.0 0.00 0.77 0.26 72 1025.0
20180122223420 57 94 1.0 5.0 0.00 0.77 0.26 74 1024.9
20180122221542 57 78 0.0 2.0 0.00 0.77 0.26 71 1025.0